| time (UTC) | temp F | wind direction | speed MPH | gust MPH | rain 1hr in | rain 24hr in | rain mn in | humidity % | barometer mb |
| 20260902161551 | 63 | 101 | 1.0 | 9.0 | 0.00 | 0.00 | 0.00 | 92 | 1019.3 |
| 20260902160046 | 63 | 40 | 2.0 | 7.0 | 0.00 | 0.00 | 0.00 | 93 | 1019.3 |
| 20260902154547 | 63 | 0 | 1.0 | 8.0 | 0.00 | 0.00 | 0.00 | 93 | 1019.5 |
| 20260902153053 | 63 | 142 | 2.0 | 9.0 | 0.00 | 0.00 | 0.00 | 93 | 1019.7 |
| 20260902151548 | 63 | 213 | 2.0 | 6.0 | 0.00 | 0.00 | 0.00 | 93 | 1020.0 |
| 20260902150045 | 63 | 95 | 1.0 | 9.0 | 0.00 | 0.00 | 0.00 | 94 | 1019.9 |
| 20260902144546 | 62 | 146 | 1.0 | 6.0 | 0.00 | 0.10 | 0.00 | 95 | 1019.7 |
| 20260902143051 | 62 | 0 | 0.0 | 7.0 | 0.00 | 0.10 | 0.00 | 95 | 1019.8 |
| 20260902141550 | 62 | 92 | 0.0 | 5.0 | 0.00 | 0.10 | 0.00 | 96 | 1020.0 |
| 20260902140052 | 62 | 0 | 0.0 | 4.0 | 0.00 | 0.10 | 0.00 | 96 | 1019.8 |
| 20260902134548 | 62 | 0 | 1.0 | 5.0 | 0.00 | 0.12 | 0.00 | 96 | 1019.6 |
| 20260902133049 | 62 | 88 | 0.0 | 4.0 | 0.00 | 0.12 | 0.00 | 96 | 1019.8 |
| 20260902131549 | 62 | 179 | 0.0 | 7.0 | 0.00 | 0.12 | 0.00 | 96 | 1020.0 |
| 20260902130048 | 62 | 69 | 0.0 | 5.0 | 0.00 | 0.12 | 0.00 | 96 | 1019.8 |
| 20260902124551 | 62 | 0 | 1.0 | 6.0 | 0.00 | 0.15 | 0.00 | 96 | 1019.2 |
| 20260902123050 | 62 | 134 | 1.0 | 5.0 | 0.00 | 0.15 | 0.00 | 96 | 1019.1 |
| 20260902121547 | 62 | 132 | 1.0 | 6.0 | 0.00 | 0.15 | 0.00 | 96 | 1019.1 |
| 20260902120054 | 62 | 0 | 1.0 | 9.0 | 0.00 | 0.15 | 0.00 | 95 | 1019.0 |
| 20260902114550 | 62 | 42 | 0.0 | 7.0 | 0.00 | 0.19 | 0.00 | 95 | 1018.9 |
| 20260902113048 | 62 | 0 | 1.0 | 7.0 | 0.00 | 0.19 | 0.00 | 96 | 1018.9 |
| 20260902111549 | 62 | 121 | 0.0 | 3.0 | 0.00 | 0.19 | 0.00 | 96 | 1019.0 |
| 20260902110046 | 62 | 0 | 0.0 | 4.0 | 0.00 | 0.19 | 0.00 | 96 | 1019.3 |
| 20260902104550 | 62 | 92 | 0.0 | 4.0 | 0.00 | 0.39 | 0.00 | 96 | 1019.4 |
| 20260902103049 | 62 | 0 | 0.0 | 3.0 | 0.00 | 0.39 | 0.00 | 97 | 1019.3 |
| 20260902101546 | 62 | 0 | 0.0 | 3.0 | 0.00 | 0.39 | 0.00 | 97 | 1019.3 |
| 20260902100045 | 62 | 136 | 1.0 | 4.0 | 0.00 | 0.39 | 0.00 | 97 | 1019.0 |
| 20260902094555 | 62 | 0 | 0.0 | 5.0 | 0.00 | 0.93 | 0.00 | 97 | 1018.9 |
| 20260902093049 | 62 | 0 | 0.0 | 6.0 | 0.00 | 0.93 | 0.00 | 97 | 1018.8 |
| 20260902091543 | 62 | 0 | 0.0 | 6.0 | 0.00 | 0.93 | 0.00 | 97 | 1018.7 |
| 20260902090048 | 62 | 0 | 0.0 | 5.0 | 0.00 | 0.93 | 0.00 | 97 | 1018.7 |
| 20260902084550 | 62 | 111 | 0.0 | 6.0 | 0.00 | 0.98 | 0.00 | 97 | 1018.6 |
| 20260902083046 | 62 | 282 | 1.0 | 5.0 | 0.00 | 0.98 | 0.00 | 97 | 1018.5 |
| 20260902081555 | 62 | 0 | 0.0 | 4.0 | 0.00 | 0.98 | 0.00 | 96 | 1018.4 |
| 20260902080048 | 62 | 0 | 1.0 | 5.0 | 0.00 | 0.98 | 0.00 | 96 | 1018.4 |
| 20260902074606 | 62 | 150 | 0.0 | 3.0 | 0.00 | 0.98 | 0.00 | 96 | 1018.4 |
| 20260902073043 | 62 | 28 | 0.0 | 3.0 | 0.00 | 0.98 | 0.00 | 96 | 1018.4 |
| 20260902071550 | 62 | 0 | 0.0 | 4.0 | 0.00 | 0.98 | 0.00 | 96 | 1018.5 |
| 20260902070050 | 62 | 0 | 1.0 | 3.0 | 0.00 | 0.98 | 0.00 | 96 | 1018.6 |
| 20260902064547 | 62 | 48 | 0.0 | 5.0 | 0.00 | 0.98 | 0.00 | 96 | 1018.6 |
| 20260902063100 | 62 | 138 | 0.0 | 6.0 | 0.00 | 0.98 | 0.00 | 96 | 1018.9 |
| 20260902061551 | 63 | 140 | 0.0 | 3.0 | 0.00 | 0.98 | 0.00 | 96 | 1018.9 |
| 20260902060105 | 63 | 311 | 0.0 | 6.0 | 0.00 | 0.98 | 0.00 | 96 | 1018.6 |
| 20260902054602 | 63 | 60 | 0.0 | 4.0 | 0.00 | 0.98 | 0.00 | 96 | 1018.4 |
| 20260902053054 | 63 | 123 | 0.0 | 4.0 | 0.00 | 0.98 | 0.00 | 97 | 1018.5 |
| 20260902051558 | 64 | 0 | 0.0 | 2.0 | 0.00 | 0.98 | 0.00 | 97 | 1018.5 |
| 20260902050048 | 64 | 0 | 0.0 | 3.0 | 0.00 | 0.98 | 0.00 | 97 | 1018.1 |
| 20260902044547 | 64 | 0 | 0.0 | 0.0 | 0.00 | 0.98 | 0.00 | 97 | 1017.9 |
| 20260902043104 | 64 | 0 | 0.0 | 3.0 | 0.00 | 0.98 | 0.00 | 97 | 1017.7 |
| 20260902041603 | 64 | 0 | 0.0 | 5.0 | 0.00 | 0.98 | 0.00 | 98 | 1017.6 |
| 20260902040049 | 65 | 0 | 0.0 | 2.0 | 0.00 | 0.98 | 0.00 | 97 | 1017.3 |
| 20260902034550 | 65 | 0 | 0.0 | 0.0 | 0.00 | 0.98 | 0.98 | 98 | 1017.1 |
| 20260902033049 | 65 | 0 | 0.0 | 0.0 | 0.00 | 0.98 | 0.98 | 97 | 1017.2 |
| 20260902031553 | 66 | 0 | 0.0 | 0.0 | 0.00 | 0.98 | 0.98 | 98 | 1017.2 |
| 20260902030049 | 66 | 0 | 0.0 | 1.0 | 0.00 | 0.98 | 0.98 | 97 | 1017.3 |
| 20260902024549 | 66 | 0 | 0.0 | 2.0 | 0.00 | 0.98 | 0.98 | 97 | 1017.2 |
| 20260902023053 | 66 | 0 | 0.0 | 0.0 | 0.00 | 0.98 | 0.98 | 97 | 1017.6 |
| 20260902021551 | 66 | 0 | 0.0 | 0.0 | 0.00 | 0.98 | 0.98 | 97 | 1017.5 |
| 20260902020047 | 66 | 73 | 0.0 | 2.0 | 0.00 | 0.98 | 0.98 | 96 | 1017.4 |
| 20260902014554 | 67 | 0 | 0.0 | 0.0 | 0.00 | 0.98 | 0.98 | 96 | 1017.3 |
| 20260902013057 | 67 | 0 | 0.0 | 2.0 | 0.00 | 0.98 | 0.98 | 96 | 1017.0 |
| 20260902011552 | 67 | 0 | 0.0 | 2.0 | 0.00 | 0.98 | 0.98 | 97 | 1016.8 |
| 20260902010052 | 67 | 0 | 0.0 | 1.0 | 0.00 | 0.98 | 0.98 | 97 | 1016.6 |
| 20260902004550 | 67 | 0 | 0.0 | 4.0 | 0.00 | 0.98 | 0.98 | 96 | 1016.5 |
| 20260902003128 | 67 | 0 | 0.0 | 2.0 | 0.00 | 0.98 | 0.98 | 96 | 1016.1 |
| 20260902001547 | 67 | 0 | 0.0 | 2.0 | 0.00 | 0.98 | 0.98 | 96 | 1016.3 |
| 20260902000059 | 67 | 0 | 0.0 | 0.0 | 0.00 | 0.98 | 0.98 | 96 | 1016.2 |
| 20260901234546 | 68 | 0 | 0.0 | 0.0 | 0.00 | 0.98 | 0.98 | 95 | 1016.0 |
| 20260901233054 | 68 | 0 | 0.0 | 0.0 | 0.00 | 0.98 | 0.98 | 95 | 1015.9 |
| 20260901231558 | 68 | 0 | 0.0 | 0.0 | 0.00 | 0.98 | 0.98 | 95 | 1015.9 |
| 20260901230048 | 68 | 0 | 0.0 | 0.0 | 0.00 | 0.98 | 0.98 | 94 | 1016.0 |
| 20260901224553 | 69 | 0 | 0.0 | 0.0 | 0.00 | 0.98 | 0.98 | 94 | 1016.0 |
| 20260901223048 | 69 | 0 | 0.0 | 0.0 | 0.00 | 0.98 | 0.98 | 94 | 1016.0 |
| 20260901221548 | 69 | 0 | 0.0 | 1.0 | 0.00 | 0.98 | 0.98 | 93 | 1015.7 |
| 20260901220048 | 69 | 0 | 0.0 | 2.0 | 0.00 | 0.98 | 0.98 | 93 | 1016.0 |
| 20260901214552 | 69 | 0 | 0.0 | 2.0 | 0.00 | 0.98 | 0.98 | 93 | 1016.0 |
| 20260901213046 | 70 | 5 | 0.0 | 4.0 | 0.00 | 0.98 | 0.98 | 93 | 1015.9 |
| 20260901211548 | 69 | 0 | 0.0 | 0.0 | 0.00 | 0.98 | 0.98 | 93 | 1015.8 |
| 20260901204546 | 69 | 0 | 0.0 | 5.0 | 0.00 | 0.98 | 0.98 | 93 | 1015.6 |
| 20260901203052 | 68 | 0 | 1.0 | 3.0 | 0.00 | 0.98 | 0.98 | 95 | 1015.7 |
| 20260901201548 | 68 | 0 | 0.0 | 0.0 | 0.00 | 0.98 | 0.98 | 96 | 1015.8 |
| 20260901200048 | 67 | 0 | 0.0 | 5.0 | 0.00 | 0.98 | 0.98 | 95 | 1015.9 |
| 20260901194546 | 68 | 31 | 0.0 | 3.0 | 0.00 | 0.98 | 0.98 | 95 | 1015.9 |
| 20260901193056 | 68 | 0 | 0.0 | 3.0 | 0.00 | 0.98 | 0.98 | 96 | 1015.9 |
| 20260901191551 | 68 | 0 | 0.0 | 3.0 | 0.00 | 0.98 | 0.98 | 96 | 1015.7 |
| 20260901190113 | 68 | 86 | 0.0 | 6.0 | 0.00 | 0.98 | 0.98 | 96 | 1015.5 |
| 20260901184544 | 68 | 0 | 0.0 | 2.0 | 0.00 | 0.98 | 0.98 | 96 | 1015.4 |
| 20260901183050 | 68 | 0 | 1.0 | 4.0 | 0.00 | 0.98 | 0.98 | 96 | 1015.5 |
| 20260901181552 | 68 | 0 | 0.0 | 2.0 | 0.00 | 0.98 | 0.98 | 97 | 1015.5 |
| 20260901180049 | 68 | 0 | 0.0 | 1.0 | 0.00 | 0.98 | 0.98 | 98 | 1015.5 |
| 20260901174553 | 67 | 0 | 0.0 | 4.0 | 0.00 | 0.98 | 0.98 | 98 | 1015.4 |
| 20260901173052 | 67 | 9 | 1.0 | 5.0 | 0.00 | 0.98 | 0.98 | 98 | 1015.4 |
| 20260901171601 | 67 | 0 | 0.0 | 4.0 | 0.00 | 0.98 | 0.98 | 99 | 1015.3 |
| 20260901170050 | 67 | 0 | 0.0 | 4.0 | 0.00 | 0.98 | 0.98 | 99 | 1015.2 |
| 20260901164552 | 68 | 0 | 0.0 | 3.0 | 0.00 | 0.98 | 0.98 | 99 | 1015.2 |
| 20260901163113 | 67 | 323 | 0.0 | 5.0 | 0.00 | 0.98 | 0.98 | 99 | 1015.4 |